Погода в Орше

Погода в Орше : погода сейчас, прогноз погоды и архив. Всё, что Вы хотите узнать о погоде в Орше!

Хотите узнать прогноз погоды в Орше? Тогда Вам сюда: Погода в Орше

Поиск расширенной информации на нашем сайте:

Другие новости

Новости СМИ2

Главная страница сайта

Новости сайта

03.07.2017

Напоминаем, что на нашем специализированном сайте Метеоцентр.Азия вы можете получить высокодетализированные автоматические прогнозы погоды по пунктам России, СНГ и мира в авиационном формате (включающие направление и скорость ветра, видимость, явления погоды, количество и форму облачности, нижнюю и верхнюю границу облачности).


Погода в Орше - сегодня

Время (UTC), дата Ветер
(°,м/с) 
Видим.   Явления Облачность Т
(°С)
Тd
(°С)
f(%) Тe
(°С)
Pmin
(гПа)
dP
(гПа)
Po
(мм)
O2
(г/м3)
Тmin Tmax R s Состояние
почвы
06 14.10.18 тихо ()   0600 м  туман  ?/?  
+3.1 +3.1 100 +3  1031.8  756  301  +1.9         
09 14.10.18 260 (З) 6000 м  дымка{туман}  6/0 верхняя 
[Ci fib]
+12.6 +9.4 81 +13  1031.4  0.4  757  290           
15 14.10.18 210 (ЮЗ) 10 км    ясно 
+16.4 +10.4 68 +19  1029.1  -0.9  755  285           
18 14.10.18 150 (ЮВ) 8000 м  дымка  ясно 
+7.7 +6.8 94 +9  1029.8  -0.1  755  295    +19       
21 14.10.18 тихо ()   0400 м  туман  ясно 
+5.4 +5.4 100 +5  1030.2  0.2  755  298           
00 15.10.18 тихо ()   0200 м  туман  ясно 
+3.6 +3.6 100 +4  1030.4  0.1  755  300           
03 15.10.18 тихо ()   0200 м  туман  ясно 
+2.5 +2.5 100 +3  1030.5  -0.1  755  301           
06 15.10.18 тихо ()   0800 м  туман  ясно 
+3.8 +3.8 100 +4  1030.3  755  300  +1.2         
09 15.10.18 240 (ЮЗ) 10 км  {туман}  3/0 верхняя 
[Ci fib]
+14.2 +7 62 +15  1030  0.4  756  288           
12 15.10.18 250 (З) 10 км  {туман}  8/0 верхняя 
[Cs]
+17.9 +8 52 +19  1028.9  -0.7  755  284           
15 15.10.18 160 (Ю) 10 км    8/0 верхняя 
[Ci]
+14.6 +6.5 58 +15  1028.3  -0.8  755  288           
18 15.10.18 200 (Ю) 10 км    8/0 верхняя 
[Cs]
+10.1 +5.3 72 +10  1028.3  -0.3  754  292    +18.4       
21 15.10.18 170 (Ю) 10 км    ясно 
+8.6 +5.5 81 +9  1028  -0.5  754  294           
00 16.10.18 190 (Ю) 6000 м  дымка  ясно 
+5.4 +4.2 92 +6  1028.5  0.2  754  297           
03 16.10.18 170 (Ю) 6000 м  дымка  ясно 
+4 +2.8 92 +5  1028.2  -0.4  754  299           
06 16.10.18 190 (Ю) 6000 м  дымка  3/0 верхняя 
[Ci fib]
+7.3 +5 85 +8  1027.7  -0.2  754  295  +3.6         
09 16.10.18 210 (ЮЗ) 10 км    3/0 верхняя 
[Ci fib]
+15 +6.4 56 +16  1026.9  -0.2  754  287           
12 16.10.18 220 (ЮЗ) 10 км    ясно 
+18.5 +8.2 51 +19  1026  -0.6  753  283           
15 16.10.18 180 (Ю) 10 км    1/0 верхняя 
[Ci fib]
+15.7 +9.3 66 +17  1025.7  -0.5  753  285           
18 16.10.18 170 (Ю) 10 км    ясно 
+10.4 +8 85 +12  1025.8  -0.3  752  291    +18.6       
21 16.10.18 тихо ()   8000 м  дымка  ясно 
+6.6 +5.9 95 +7  1026.2  0.1  753  295           
00 17.10.18 150 (ЮВ) 2700 м  дымка  ясно 
+5.7 +5.2 97 +7  1026.3  753  296           
03 17.10.18 140 (ЮВ) 0200 м  туман  ясно 
+3.6 +3.6 100 +4  1026.3  -0.2  752  299           
06 17.10.18 180 (Ю) 1300 м  в посл. час туман  ясно 
+4.4 +3.9 97 +5  1026.5  0.2  753  298  +3.1         
09 17.10.18 220 (ЮЗ) 10 км    ясно 
+15.8 +8.5 62 +17  1025.9  0.4  753  285           
Время (UTC), дата Ветер
(°,м/с) 
Видим.   Явления Облачность Т
(°С)
Тd
(°С)
f(%) Тe
(°С)
Pmin
(гПа)
dP
(гПа)
Po
(мм)
O2
(г/м3)
Тmin Tmax R s Состояние
почвы

Для получения пояснительной информации подведите курсор к названию столбца.

ПОГОДА в Орше - архив

Всё, что Вы хотите узнать о погоде в Орше - удобно и подробно!

Выберите нужную дату (начиная с 1 января 2015* года) и нажмите кнопку "Найти".
Будут отображены архивные сводки погоды по пункту Орша, начиная с указанной даты.


Отображать данные в формате CSV (для использования в таблицах Excel)


Внимание! Наш архив погоды предназначен исключительно для личного некоммерческого использования в познавательных целях. Если Вам необходимы официальные справки о состоянии погоды (для производственных, юридических, коммерческих и т.п. целей), обращайтесь в органы Росгидромета.

*Примечание: данная дата относится к архиву по метеостанциям СССР (Россия, СНГ, Балтия).
Архив по метеостанциям Зарубежной Европы и Азии (кроме Китая) хранится 10 дней, по другим регионам земного шара (Китай, Африка, Америка, Австралия, Океания) - 1 день.

Орша - район местоположения метеостанции


Название, широта, долгота, высота метеостанции:
Орша 55°ш. 30.4°д. 185 м над ур. моря [Беларусь]

Дополнительная информация

В oтличие oт бoльшинства пoгoдных сайтoв мы публикуем пoдрoбную метеoинфoрмацию в детальнoм прoфессиoнальнoм фoрмате.

Характеристики температуры и влажнoсти вoздуха измеряются на высoте 2 м в тени вдали oт зданий и деревьев.
Скoрoсть ветра измеряется на высoте 10 м (на урoвне рoста челoвека скoрoсть ветра ниже в 1.5-2 раза). Если метеoстанция нахoдится в гoрoде или в лесу, тo скoрoсть ветра занижена на 2-4 м/с пo сравнению с oткрытым местoм. Скoрoсть ветра над акватoриями крупных рек и oзёр, а также на вершинах хoлмoв на 2-5 м/с выше, чем в oбычных услoвиях.
Атмoсфернoе давление в разных тoчках местнoсти мoжет значительнo oтличаться oт давления на метеoстанции, в зависимoсти oт услoвий рельефа (при пoдъёме на 10 м давление пoнижается примернo на 1 мм рт.ст.).